GW6944 Weather Reports


time (UTC)temp
F
wind
direction
speed
knots
gust
knots
rain 1hr
in
rain 24hr
in
rain mn
in
humidity
%
barometer
mb
20260509000358 68 235 0.9 2.6 0.00 0.00 0.00 37 1045.0
20260508235853 68 275 1.7 3.5 0.00 0.00 0.00 36 1044.7
20260508235350 68 195 0.0 1.7 0.00 0.00 0.00 37 1044.8
20260508234848 68 231 2.6 5.2 0.00 0.00 0.00 34 1045.0
20260508234344 68 287 1.7 2.6 0.00 0.00 0.00 36 1045.0
20260508233843 68 289 4.3 6.1 0.00 0.00 0.00 34 1045.1
20260508233342 69 241 2.6 7.0 0.00 0.00 0.00 35 1045.2
20260508232838 69 199 2.6 6.1 0.00 0.00 0.00 34 1045.1
20260508232334 69 97 3.5 5.2 0.00 0.00 0.00 33 1045.0
20260508231833 69 279 1.7 6.1 0.00 0.00 0.00 33 1045.0
20260508231329 70 261 1.7 7.8 0.00 0.00 0.00 35 1045.1
20260508230826 71 298 3.5 6.1 0.00 0.00 0.00 31 1045.1
20260508230322 71 237 2.6 7.0 0.00 0.00 0.00 32 1045.1
20260508225820 71 167 6.1 7.0 0.00 0.00 0.00 31 1045.1
20260508225316 71 294 1.7 7.0 0.00 0.00 0.00 31 1045.2
20260508224814 71 214 1.7 5.2 0.00 0.00 0.00 30 1045.1
20260508224312 71 289 5.2 7.8 0.00 0.00 0.00 30 1045.1
20260508223809 71 211 1.7 7.8 0.00 0.00 0.00 32 1045.1
20260508223306 71 314 3.5 5.2 0.00 0.00 0.00 29 1045.1
20260508222804 72 288 6.1 9.6 0.00 0.00 0.00 30 1045.2
20260508222301 71 109 0.9 2.6 0.00 0.00 0.00 35 1045.0
20260508221757 72 301 2.6 6.1 0.00 0.00 0.00 32 1045.0
20260508221253 72 271 5.2 7.0 0.00 0.00 0.00 30 1044.9
20260508220750 72 238 2.6 6.1 0.00 0.00 0.00 34 1045.1
20260508220246 71 270 2.6 3.5 0.00 0.00 0.00 32 1044.8
20260508215742 72 225 1.7 6.1 0.00 0.00 0.00 30 1045.1
20260508215239 72 243 5.2 7.8 0.00 0.00 0.00 31 1045.0
20260508214736 72 246 3.5 5.2 0.00 0.00 0.00 32 1044.8
20260508214234 72 243 3.5 6.1 0.00 0.00 0.00 30 1045.1
20260508213730 72 224 3.5 8.7 0.00 0.00 0.00 31 1045.1
20260508213226 72 229 2.6 6.1 0.00 0.00 0.00 31 1044.8
20260508212723 73 209 7.8 8.7 0.00 0.00 0.00 29 1044.7
20260508212219 73 176 3.5 7.0 0.00 0.00 0.00 31 1044.8
20260508211715 73 180 1.7 5.2 0.00 0.00 0.00 28 1045.0
20260508211211 72 213 2.6 7.8 0.00 0.00 0.00 33 1045.2
20260508210709 73 303 7.8 11.3 0.00 0.00 0.00 30 1045.2
20260508210206 73 166 1.7 6.1 0.00 0.00 0.00 31 1045.3
20260508205702 72 309 2.6 5.2 0.00 0.00 0.00 33 1045.5
20260508205159 72 312 4.3 7.0 0.00 0.00 0.00 33 1045.4
20260508204655 72 184 2.6 7.8 0.00 0.00 0.00 31 1045.6
20260508204151 73 288 4.3 6.1 0.00 0.00 0.00 32 1045.8
20260508203648 73 222 1.7 7.8 0.00 0.00 0.00 34 1045.6
20260508203144 72 282 4.3 5.2 0.00 0.00 0.00 34 1045.7
20260508202640 72 213 0.9 3.5 0.00 0.00 0.00 36 1045.6
20260508202138 72 243 1.7 9.6 0.00 0.00 0.00 31 1046.1
20260508201634 72 189 0.9 6.1 0.00 0.00 0.00 33 1046.0
20260508201131 72 294 2.6 7.0 0.00 0.00 0.00 34 1046.2
20260508200628 72 203 1.7 6.1 0.00 0.00 0.00 34 1046.5
20260508200124 71 183 2.6 7.0 0.00 0.00 0.00 32 1046.6
20260508195620 72 127 5.2 11.3 0.00 0.00 0.00 31 1046.1
20260508195117 72 311 2.6 3.5 0.00 0.00 0.00 35 1046.4
20260508194613 72 261 3.5 3.5 0.00 0.00 0.00 32 1046.1
20260508194111 72 106 6.1 8.7 0.00 0.00 0.00 31 1046.3
20260508193608 72 162 2.6 6.1 0.00 0.00 0.00 33 1046.3
20260508193104 71 132 5.2 8.7 0.00 0.00 0.00 31 1046.2
20260508192601 71 228 1.7 8.7 0.00 0.00 0.00 35 1046.3
20260508192058 71 302 1.7 6.1 0.00 0.00 0.00 35 1046.4
20260508191554 71 176 1.7 8.7 0.00 0.00 0.00 31 1046.5
20260508191051 71 237 5.2 7.0 0.00 0.00 0.00 29 1046.5
20260508190548 71 217 4.3 8.7 0.00 0.00 0.00 32 1046.5
20260508190045 70 247 5.2 9.6 0.00 0.00 0.00 31 1046.5
20260508185542 71 266 3.5 7.8 0.00 0.00 0.00 35 1046.6
20260508185039 70 178 5.2 7.0 0.00 0.00 0.00 33 1046.8
20260508184537 71 269 4.3 8.7 0.00 0.00 0.00 35 1046.7
20260508184033 71 229 4.3 7.8 0.00 0.00 0.00 33 1047.1
20260508183530 70 249 1.7 6.1 0.00 0.00 0.00 33 1046.9
20260508183026 70 260 5.2 6.1 0.00 0.00 0.00 36 1047.0
20260508182523 70 194 3.5 7.0 0.00 0.00 0.00 34 1047.3
20260508182019 70 122 2.6 11.3 0.00 0.00 0.00 34 1047.2
20260508181515 70 138 3.5 8.7 0.00 0.00 0.00 34 1047.7
20260508181013 70 250 5.2 7.0 0.00 0.00 0.00 34 1047.7
20260508180509 70 253 1.7 3.5 0.00 0.00 0.00 36 1047.9
20260508180005 70 278 2.6 7.0 0.00 0.00 0.00 32 1047.8
20260508175502 70 219 3.5 8.7 0.00 0.00 0.00 32 1048.0
20260508174959 70 261 5.2 8.7 0.00 0.00 0.00 34 1048.2
20260508174457 70 153 4.3 7.8 0.00 0.00 0.00 38 1048.3
20260508173953 69 144 3.5 7.8 0.00 0.00 0.00 35 1048.4
20260508173451 69 184 2.6 5.2 0.00 0.00 0.00 34 1048.5
20260508172946 70 197 1.7 7.0 0.00 0.00 0.00 36 1048.5
20260508172444 70 307 7.8 9.6 0.00 0.00 0.00 38 1048.5
20260508171940 69 255 1.7 2.6 0.00 0.00 0.00 35 1048.5
20260508171437 68 162 5.2 8.7 0.00 0.00 0.00 35 1048.7
20260508170933 68 113 3.5 7.8 0.00 0.00 0.00 38 1048.9
20260508170431 68 149 4.3 7.8 0.00 0.00 0.00 36 1048.8
20260508165927 68 159 4.3 7.0 0.00 0.00 0.00 37 1049.0
20260508165426 69 273 2.6 3.5 0.00 0.00 0.00 38 1049.3
20260508164921 68 178 2.6 5.2 0.00 0.00 0.00 38 1049.1
20260508164418 68 247 3.5 5.2 0.00 0.00 0.00 38 1049.3
20260508163915 68 258 3.5 5.2 0.00 0.00 0.00 41 1049.5
20260508163413 68 317 0.9 3.5 0.00 0.00 0.00 40 1049.8
20260508162908 68 238 2.6 7.8 0.00 0.00 0.00 38 1049.6
20260508162406 68 216 1.7 5.2 0.00 0.00 0.00 38 1049.7
20260508161903 68 230 1.7 7.0 0.00 0.00 0.00 36 1049.6
20260508161400 68 196 3.5 5.2 0.00 0.00 0.00 38 1050.0
20260508160857 68 124 4.3 7.0 0.00 0.00 0.00 37 1050.0
20260508160356 66 249 1.7 2.6 0.00 0.00 0.00 40 1049.9
20260508155852 67 282 6.1 7.8 0.00 0.00 0.00 36 1049.9
20260508155349 67 213 3.5 5.2 0.00 0.00 0.00 42 1050.0
20260508154846 66 217 1.7 5.2 0.00 0.00 0.00 37 1050.1
20260508154344 66 276 1.7 6.1 0.00 0.00 0.00 38 1050.0
20260508153840 66 313 3.5 6.1 0.00 0.00 0.00 37 1050.4
20260508153337 66 156 4.3 7.0 0.00 0.00 0.00 39 1050.2
20260508152833 65 243 2.6 5.2 0.00 0.00 0.00 42 1050.3
20260508152330 65 285 2.6 6.1 0.00 0.00 0.00 40 1050.5
20260508151826 66 229 2.6 6.1 0.00 0.00 0.00 39 1050.5
20260508151323 65 276 1.7 3.5 0.00 0.00 0.00 42 1050.4
20260508150819 66 212 1.7 6.1 0.00 0.00 0.00 40 1050.5
20260508150316 65 221 1.7 3.5 0.00 0.00 0.00 42 1050.6
20260508145812 64 267 0.9 5.2 0.00 0.00 0.00 42 1050.7
20260508145309 64 322 6.1 7.0 0.00 0.00 0.00 41 1050.8
20260508144806 63 163 2.6 2.6 0.00 0.00 0.00 42 1050.7
20260508144304 64 140 2.6 5.2 0.00 0.00 0.00 45 1050.6
20260508143801 63 185 1.7 2.6 0.00 0.00 0.00 42 1050.7
20260508143258 63 252 2.6 5.2 0.00 0.00 0.00 43 1050.7
20260508142754 63 225 1.7 5.2 0.00 0.00 0.00 40 1050.6
20260508142251 62 273 3.5 6.1 0.00 0.00 0.00 44 1050.4
20260508141748 61 282 6.1 7.0 0.00 0.00 0.00 47 1050.5
20260508141245 61 291 3.5 6.1 0.00 0.00 0.00 50 1050.6
20260508140742 60 263 0.9 3.5 0.00 0.00 0.00 51 1050.7
20260508140239 59 253 2.6 6.1 0.00 0.00 0.00 49 1050.8
20260508135735 59 255 3.5 3.5 0.00 0.00 0.00 50 1050.6
20260508135231 58 216 1.7 2.6 0.00 0.00 0.00 52 1050.8
20260508134727 57 258 1.7 2.6 0.00 0.00 0.00 55 1050.6
20260508134225 57 272 3.5 3.5 0.00 0.00 0.00 56 1051.0
20260508133721 56 270 1.7 5.2 0.00 0.00 0.00 58 1050.8
20260508133219 55 233 2.6 2.6 0.00 0.00 0.00 57 1050.6
20260508132716 54 279 1.7 2.6 0.00 0.00 0.00 63 1050.8
20260508132214 54 297 2.6 2.6 0.00 0.00 0.00 61 1050.7
20260508131709 53 237 1.7 2.6 0.00 0.00 0.00 62 1050.9
20260508131206 52 290 2.6 2.6 0.00 0.00 0.00 65 1050.8
20260508130702 51 203 1.7 1.7 0.00 0.00 0.00 66 1050.7
20260508130200 51 253 0.9 0.9 0.00 0.00 0.00 65 1050.6
20260508125655 51 266 1.7 1.7 0.00 0.00 0.00 64 1050.6
20260508125151 51 247 2.6 3.5 0.00 0.00 0.00 64 1051.0
20260508124650 50 226 0.9 0.9 0.00 0.00 0.00 65 1050.7
20260508124146 50 118 1.7 2.6 0.00 0.00 0.00 66 1050.9
20260508123645 49 175 0.9 0.9 0.00 0.00 0.00 69 1050.6
20260508123142 49 186 1.7 1.7 0.00 0.00 0.00 64 1050.4
20260508122638 48 135 0.9 1.7 0.00 0.00 0.00 68 1050.5
20260508122135 48 141 0.9 1.7 0.00 0.00 0.00 67 1050.5
20260508121633 47 204 0.0 1.7 0.00 0.00 0.00 69 1050.5
20260508121132 47 165 0.0 1.7 0.00 0.00 0.00 69 1050.5
20260508120628 47 153 1.7 1.7 0.00 0.00 0.00 71 1050.3
20260508120127 46 125 0.9 1.7 0.00 0.00 0.00 72 1050.5
20260508115624 45 131 0.0 0.9 0.00 0.00 0.00 76 1050.7
20260508115120 44 115 0.0 0.9 0.00 0.00 0.00 77 1050.5
20260508114618 44 115 0.0 0.9 0.00 0.00 0.00 77 1050.6
20260508114113 44 118 0.9 0.9 0.00 0.00 0.00 78 1050.7
20260508113611 43 107 0.9 1.7 0.00 0.00 0.00 78 1050.3
20260508113109 42 115 0.9 1.7 0.00 0.00 0.00 82 1050.0
20260508112605 40 115 0.9 1.7 0.00 0.00 0.00 90 1050.1
20260508112102 40 119 0.0 0.0 0.00 0.00 0.00 92 1050.1
20260508111559 39 119 0.0 0.9 0.00 0.00 0.00 94 1050.1
20260508111056 38 114 0.0 0.0 0.00 0.00 0.00 94 1050.4
20260508110554 38 114 0.0 0.0 0.00 0.00 0.00 93 1050.1
20260508110050 38 114 0.0 0.0 0.00 0.00 0.00 93 1049.8
20260508105544 38 114 0.0 0.0 0.00 0.00 0.00 94 1050.0
20260508105042 38 114 0.0 0.0 0.00 0.00 0.00 93 1050.1
20260508104540 38 114 0.0 0.0 0.00 0.00 0.00 93 1050.0
20260508104036 38 114 0.0 0.0 0.00 0.00 0.00 93 1049.8
20260508103533 38 114 0.0 0.0 0.00 0.00 0.00 93 1049.9
20260508103031 38 114 0.0 0.0 0.00 0.00 0.00 93 1049.7
20260508102528 38 114 0.0 0.0 0.00 0.00 0.00 92 1050.0
20260508102026 38 114 0.0 0.0 0.00 0.00 0.00 92 1049.8
20260508101523 37 114 0.0 0.0 0.00 0.00 0.00 91 1049.6
20260508101020 38 114 0.0 0.0 0.00 0.00 0.00 90 1049.7
20260508100518 38 114 0.0 0.0 0.00 0.00 0.00 90 1049.8
20260508100015 38 114 0.0 0.0 0.00 0.00 0.00 89 1049.7
20260508095512 39 114 0.0 0.0 0.00 0.00 0.00 89 1049.7
20260508095009 39 114 0.0 0.0 0.00 0.00 0.00 88 1049.6
20260508094506 40 114 0.0 0.0 0.00 0.00 0.00 87 1049.6
20260508094003 40 114 0.0 0.0 0.00 0.00 0.00 86 1049.7
20260508093500 41 114 0.0 0.0 0.00 0.00 0.00 84 1049.8
20260508092957 41 114 0.0 1.7 0.00 0.00 0.00 84 1049.8
20260508092455 41 105 0.9 0.9 0.00 0.00 0.00 84 1049.6
20260508091954 40 105 0.0 0.9 0.00 0.00 0.00 87 1049.8
20260508091450 41 105 0.0 0.0 0.00 0.00 0.00 86 1049.9
20260508090947 41 105 0.0 0.0 0.00 0.00 0.00 87 1049.5
20260508090445 40 104 0.0 0.9 0.00 0.00 0.00 88 1049.9
20260508085941 40 104 0.0 0.0 0.00 0.00 0.00 88 1049.7
20260508085438 41 104 0.0 0.0 0.00 0.00 0.00 86 1049.9
20260508084935 41 104 0.0 0.0 0.00 0.00 0.00 86 1049.8
20260508084431 40 81 0.9 0.9 0.00 0.00 0.00 87 1049.8
20260508083929 40 55 0.0 0.0 0.00 0.00 0.00 87 1049.9
20260508083426 40 55 0.0 0.0 0.00 0.00 0.00 88 1049.8
20260508082926 40 55 0.0 0.0 0.00 0.00 0.00 88 1050.0
20260508082424 40 55 0.0 0.0 0.00 0.00 0.00 88 1049.9
20260508081922 40 55 0.0 0.0 0.00 0.00 0.00 89 1049.9
20260508081418 40 55 0.0 0.0 0.00 0.00 0.00 90 1049.7
20260508080914 40 55 0.0 0.0 0.00 0.00 0.00 92 1050.0
20260508080413 39 55 0.0 0.0 0.00 0.00 0.00 93 1049.8
20260508075909 39 55 0.0 0.0 0.00 0.00 0.00 93 1049.7
20260508075406 39 55 0.0 0.0 0.00 0.00 0.00 93 1049.8
20260508074904 39 55 0.0 0.9 0.00 0.00 0.00 93 1049.8
20260508074401 38 55 0.0 0.0 0.00 0.00 0.00 93 1049.7
20260508073858 39 55 0.0 0.0 0.00 0.00 0.00 92 1049.7
20260508073356 39 55 0.0 0.0 0.00 0.00 0.00 94 1049.8
20260508072852 39 55 0.0 0.9 0.00 0.00 0.00 94 1049.7
20260508072348 38 55 0.0 0.0 0.00 0.00 0.00 94 1049.8
20260508071846 38 55 0.0 0.0 0.00 0.00 0.00 93 1049.9
20260508071344 38 55 0.0 0.0 0.00 0.00 0.00 93 1049.8
20260508070841 39 55 0.0 0.0 0.00 0.00 0.00 93 1049.8
20260508070339 39 55 0.0 0.0 0.00 0.00 0.00 93 1049.8
20260508065837 39 55 0.0 0.0 0.00 0.00 0.00 93 1049.9
20260508065335 39 55 0.0 0.0 0.00 0.00 0.00 93 1049.8
20260508064833 39 55 0.0 0.0 0.00 0.00 0.00 94 1049.7
20260508064330 39 55 0.0 0.0 0.00 0.00 0.00 94 1049.6
20260508063827 39 55 0.0 0.0 0.00 0.00 0.00 93 1049.8
20260508063325 39 55 0.0 0.0 0.00 0.00 0.00 93 1049.8
20260508062822 39 55 0.0 0.0 0.00 0.00 0.00 93 1049.9
20260508062320 39 55 0.0 0.0 0.00 0.00 0.00 93 1049.9
20260508061816 39 55 0.0 0.0 0.00 0.00 0.00 93 1049.9
20260508061314 39 55 0.0 0.0 0.00 0.00 0.00 93 1049.9
20260508060810 39 55 0.0 0.0 0.00 0.00 0.00 92 1050.1
20260508060309 39 55 0.0 0.0 0.00 0.00 0.00 92 1050.0
20260508055808 39 55 0.0 0.0 0.00 0.00 0.00 92 1050.0
20260508055307 40 55 0.0 0.0 0.00 0.00 0.00 92 1050.3
20260508054803 40 59 0.9 0.9 0.00 0.00 0.00 92 1050.3
20260508054300 40 105 0.0 0.0 0.00 0.00 0.00 92 1050.4
20260508053757 40 105 0.0 0.0 0.00 0.00 0.00 93 1050.4
20260508053255 40 104 0.0 0.0 0.00 0.00 0.00 91 1050.4
20260508052752 40 104 0.0 0.0 0.00 0.00 0.00 91 1050.4
20260508052249 40 104 0.0 0.0 0.00 0.00 0.00 91 1050.2
20260508051745 40 104 0.0 0.0 0.00 0.00 0.00 91 1050.3
20260508051240 40 104 0.0 0.0 0.00 0.00 0.00 89 1050.4
20260508050737 41 104 0.0 0.0 0.00 0.00 0.00 88 1050.2
20260508050234 42 104 0.0 0.0 0.00 0.00 0.00 89 1050.2
20260508045729 41 104 0.9 0.9 0.00 0.00 0.00 91 1049.9
20260508045228 41 313 0.0 0.0 0.00 0.00 0.00 90 1050.1
20260508044725 41 313 0.0 0.0 0.00 0.00 0.00 90 1050.0
20260508044222 41 313 0.0 0.0 0.00 0.00 0.00 90 1050.0
20260508043717 41 313 0.0 0.0 0.00 0.00 0.00 89 1049.9
20260508043216 41 313 0.0 0.0 0.00 0.00 0.00 88 1050.1
20260508042712 41 313 0.9 0.9 0.00 0.00 0.00 89 1050.2
20260508042209 41 313 0.0 0.0 0.00 0.00 0.00 88 1050.2
20260508041705 41 313 0.0 0.0 0.00 0.00 0.00 88 1050.1
20260508041203 41 313 0.0 0.0 0.00 0.00 0.00 89 1050.2
20260508040659 42 313 0.0 0.0 0.00 0.00 0.00 89 1050.0
20260508040157 42 313 0.0 0.0 0.00 0.00 0.00 88 1049.9
20260508035654 42 313 0.0 0.0 0.00 0.00 0.00 88 1050.0
20260508035151 42 313 0.0 0.0 0.00 0.00 0.00 87 1050.1
20260508034647 42 313 0.0 0.0 0.00 0.00 0.00 86 1050.1
20260508034144 43 313 0.0 0.0 0.00 0.00 0.00 85 1049.9
20260508033642 42 313 0.0 0.0 0.00 0.00 0.00 87 1050.0
20260508033141 43 313 0.0 0.0 0.00 0.00 0.00 87 1050.0
20260508032636 43 313 0.0 0.0 0.00 0.00 0.00 87 1050.0
20260508032134 43 313 0.0 0.0 0.00 0.00 0.00 87 1050.3
20260508031631 44 313 0.0 0.0 0.00 0.00 0.00 84 1050.1
20260508031127 44 313 0.0 0.0 0.00 0.00 0.00 83 1050.3
20260508030623 44 313 0.0 0.0 0.00 0.00 0.00 81 1049.9
20260508030121 44 313 0.0 0.0 0.00 0.00 0.00 84 1050.3
20260508025617 45 313 0.0 0.0 0.00 0.00 0.00 82 1050.2
20260508025115 44 313 0.0 0.0 0.00 0.00 0.00 82 1050.0
20260508024610 45 313 0.0 0.0 0.00 0.00 0.00 81 1050.0
20260508024108 45 313 0.0 0.0 0.00 0.00 0.00 78 1050.0
20260508023604 46 313 0.0 0.0 0.00 0.00 0.00 72 1049.9
20260508023101 46 313 0.0 0.0 0.00 0.00 0.00 82 1049.8
20260508022557 46 313 0.0 0.0 0.00 0.00 0.00 80 1050.1
20260508022054 46 313 0.0 0.0 0.00 0.00 0.00 82 1050.0
20260508021550 46 313 0.0 0.0 0.00 0.00 0.00 81 1050.0
20260508021046 46 313 0.0 0.0 0.00 0.00 0.00 77 1049.9
20260508020544 47 313 0.0 0.0 0.00 0.00 0.00 78 1049.8
20260508020041 47 313 0.0 0.0 0.00 0.00 0.00 75 1049.9
20260508015539 47 313 0.0 0.0 0.00 0.00 0.00 67 1049.7
20260508015036 47 313 0.0 0.0 0.00 0.00 0.00 67 1049.5
20260508014532 48 313 0.0 0.0 0.00 0.00 0.00 75 1049.6
20260508014028 48 313 0.0 0.0 0.00 0.00 0.00 79 1049.4
20260508013524 48 313 0.0 0.0 0.00 0.00 0.00 78 1049.4
20260508013021 49 313 0.0 0.0 0.00 0.00 0.00 76 1049.4
20260508012519 49 313 0.0 0.0 0.00 0.00 0.00 77 1049.2
20260508012016 49 313 0.0 0.0 0.00 0.00 0.00 78 1049.3
20260508011514 49 313 0.0 0.0 0.00 0.00 0.00 75 1049.2
20260508011011 50 313 0.0 0.0 0.00 0.00 0.00 70 1049.4
20260508010508 51 313 0.0 0.0 0.00 0.00 0.00 69 1049.4
20260508010006 51 313 0.0 0.0 0.00 0.00 0.00 66 1049.1
20260508005502 52 313 0.0 0.0 0.00 0.00 0.00 68 1048.9
20260508004959 53 313 0.0 0.0 0.00 0.00 0.00 64 1048.7
20260508004454 54 313 0.0 0.0 0.00 0.00 0.00 64 1048.9
20260508003951 56 313 0.0 0.0 0.00 0.00 0.00 57 1048.9
20260508003448 57 313 0.0 0.0 0.00 0.00 0.00 57 1048.8
20260508002945 59 313 0.0 0.0 0.00 0.00 0.00 51 1048.8
20260508002442 60 313 0.0 0.0 0.00 0.00 0.00 44 1049.0
20260508001938 62 313 0.0 0.0 0.00 0.00 0.00 39 1048.9
20260508001434 62 313 0.0 0.9 0.00 0.00 0.00 37 1048.8
20260508000931 63 313 0.0 0.0 0.00 0.00 0.00 35 1048.7